STARLINK-11103, 59718

Orbit data source: Space-Track

STARLINK-11103, 59718 is a payload satellite owned by SpaceX/Seattle (US) in LEO that was launched on Fri, 10 May 2024 UTC via an FALCON 9 launch vehicle from the Air Force Western Test Range (AFWTR). Payload-class satellites include a variety of spacecraft equipped with specific instruments for various scientific and technological missions. These include communications satellites like Starlink; space stations such as the ISS; scientific satellites like the Hubble; Earth observation satellites from companies like Planet Labs, Umbra, and HawkEye 360; GPS; miniature CubeSats for education and research; and military/defense satellites.

Loading next visibility...
Identifier
59718, 2024-088L
Orbit
LEO
Country
Flag of USUS
Related business
Manufacturer
SpaceX/Seattle
Mission
Operational Commercial Communications
Bus & Motor
STARLINK V2MD, Unknown motor
Mass
960 kg wet, ~910 kg dry
Launch date (UTC)
2024-05-10 (2 years ago)
Launch vehicle
FALCON 9
Launch site
Air Force Western Test Range (AFWTR)
Object type
Payload
Rocket body
Debris
Shape & HBR
Box + 2 Pan, 18.1 m
Radar Cross Section
36.964 m², Large (>1 m²)

Expand to show TLE details & history
Last TLE update: 2 days ago

TLE from 2 days ago
0 STARLINK-11103
1 59718U 24088L   26171.31600909 -.00001941  00000-0 -11183-4 0  9992
2 59718  53.1586 180.1537 0000777  91.5813 268.5294 15.69691712122393
Epoch: 2026-06-20T07:35Z
TLE epoch observation values (Epoch: 2026-06-20T07:35:03.185Z)
Latitude
-0.00001°
Longitude
157.85804°
Altitude
360.707 km
Speed
7.694 km/s
True Right ascension
12h 00m 36s
True Declination
0° 00' 00"
Sunlit
Object was in daylight at epoch
Visualization orbit readout
Latitude
Unknown
Longitude
Unknown
Altitude
Unknown
Speed
Unknown
Apparent Right ascension
Unknown
Apparent Declination
Unknown
Sunlit
N/A
Visualization observer readout
Local Sidereal Time
21:52:26
Azimuth
Unknown
Elevation
Unknown
Doppler factor
Unknown
Orbital elements
Apogee altitude
360.564 km
Perigee altitude
359.516 km
Semi-major axis
6,738.177 km
Eccentricity
0.00008
Inclination
53.1586°
RAAN
180.1537°
Arg. of periapsis
91.5813°
True anomaly
268.5205°
Mean anomaly
268.5294°
Eccentric anomaly
268.52495°
Mean motion
3.924 °/min
Orbital period
91.74 mins
BSTAR
-0.000011183
Loading maneuver chart data...
Computing Atmospheric mass density...
Loading historical data...
Loading historical data...
Loading historical data...
Loading historical data...
Loading historical data...
Loading historical data...
Loading historical data...

Documentation

Showing up to 5 results
|